星链-5261 (STARLINK-5261 )

导读 | 豆包AI

STARLINK-5261是美国太空探索技术公司(SpaceX)星链(Starlink)项目的卫星,于2023年1月19日发射入轨,星链项目旨在为全球提供高速互联网覆盖服务,该卫星属于星链低轨卫星星座组网的一部分,运行在近地轨道,承担着卫星互联网通信相关任务,推进全球互联网覆盖进程。

基本信息
目录编号:
55276
目录名称:
STARLINK-5261
国际标识:
2023-010H
轨道中心:
EARTH
卫星名称:
星链-5261
卫星全名:
星链-5261 (STARLINK-5261 )
卫星状态:
在轨 (已飞行1151 天)
发射日期:
2023-01-19 UTC
国别 :
美国 (US)
星等 :
--
轨道信息
数据来源 国际轨道数据 AOE轨道数据
星历时间 2026-03-15T14:41:49+0800
6小时前
查看轨道信息
2026-03-13T16:00:00+0800
2天前
查看轨道信息
半长轴 6950.207km 6950.136km
偏心率 0.0002861 0.0001226
轨道倾角 70.001° 70.001°
近地点辐角 270.972° 128.429°
升交点赤经 10.477° 15.380°
平近点角 89.111° 179.559°
近地点 570.081km 571.146km
远地点 574.059km 572.852km
周期 96.107分钟 96.106分钟
每日圈数 14.983256 14.983484
详细信息
固有亮度:
5
最大亮度:
2.5
卫星平台:
Starlink v1.5
覆盖范围:
全球
运营商:
太空探索技术公司
运营商所在国:
美国
制造商(研发单位):
太空探索技术公司
制造商所在国:
美国
使用方式:
暂无
卫星简介
星链(Starlink)计划是由太空探索技术公司(SpaceX)提出的一个巨型低轨卫星互联网星座项目,计划在2019年至2024年间在太空搭建由约1.2万颗卫星组成的“星链”网络,其中1584颗将部署在地球上空550千米处的近地轨道,并从2020年开始工作。该卫星仍在工作。
2D轨道图
3D轨道图
轨道高度分析图
轨道倾角分析图
轨道综合分析图
查看轨道综合分析图